星链-36751(STARLINK-36751)

导读

STARLINK-36751是美国太空探索技术公司(SpaceX)星链(Starlink)星座的成员,于2026年2月11日发射入轨。星链项目旨在构建全球卫星互联网星座,为全球用户提供高速低延迟的宽带服务,STARLINK-36751的入轨进一步拓展了星链星座的服务覆盖范围与网络容量,助力星链完成低轨卫星互联网组网。

Basic Information
目录编号:
67729
目录名称:
STARLINK-36751
国际标识:
2026-026J
轨道中心:
EARTH
卫星名称:
星链-36751
卫星全名:
星链-36751(STARLINK-36751)
卫星状态:
在轨 (已飞行206 天)
发射日期:
2026-02-11 UTC
国别 :
美国 (US)
星等 :
--
Orbit Information
数据来源 国际轨道数据
星历时间: 2026-09-05T00:04:47+0800
19小时前
查看轨道信息
半长轴: 6843.663km
偏心率: 0.0000556
轨道倾角: 97.286°
近地点辐角 83.393°
升交点赤经 299.713°
平近点角 276.738°
近地点: 465.145km
远地点: 465.907km
周期: 93.906分钟
每日圈数: 15.334511
Detailed Information
固有亮度:
5
最大亮度:
2.5
卫星平台:
Starlink V1.0
覆盖范围:
全球
运营商:
太空探索技术公司
运营商所在国:
美国
制造商(研发单位):
太空探索技术公司
制造商所在国:
美国
使用方式:
暂无
Satellite Introduction
Starlink 计划是 SpaceX 推出的全球卫星互联网项目,通过发射低轨道卫星,为全球尤其是偏远地区提供高速、低延迟的互联网服务。自 2019 年起,Starlink 已部署数千颗卫星,旨在缩小全球数字鸿沟,推动互联网普及。该项目还为军事、航空等行业提供通信支持,带来广泛经济效益。
2D Orbit Map
3D Orbit Map
Orbit Altitude Analysis Chart
Orbit Inclination Analysis Chart
Orbit Comprehensive Analysis Chart
View Comprehensive Chart
Conjunction Data List
Event ID Objects TCA Miss Dist (km) Collision Risk Probability Collision Risk Index (CRI) Action
CDM_260905-180606-580706-772921
2026-09-05T
18:06:54+0000
1.664 km
极远距离
4.866278E-6 低风险 0.49
CDM_260905-194006-580706-772921
2026-09-05T
19:40:52+0000
2.671 km
极远距离
1.583529E-6 低风险 0.39
CDM_260905-203906-264806-772921
LIME (62648)
2026-09-05T
20:39:03+0000
1.840 km
极远距离
1.561414E-6 低风险 0.39
CDM_260905-233705-260006-772921
2026-09-05T
23:37:31+0000
2.587 km
极远距离
1.546044E-6 低风险 0.39
CDM_260906-182606-772906-862821
MISR-C-1 (68628)
2026-09-06T
18:26:50+0000
2.459 km
极远距离
1.438035E-6 低风险 0.38
CDM_260907-124906-371806-772921
2026-09-07T
12:49:25+0000
2.924 km
极远距离
1.358029E-6 低风险 0.38
CDM_260907-212204-855506-772921
2026-09-07T
21:22:25+0000
2.996 km
极远距离
1.092966E-6 低风险 0.36
CDM_260906-164606-411306-772921
2026-09-06T
16:46:57+0000
2.792 km
极远距离
9.73211E-7 极低风险 0.35